| time (UTC) | temp F | wind direction | speed MPH | gust MPH | rain 1hr in | rain 24hr in | rain mn in | humidity % | barometer mb |
| 20260906224021 | 87 | 51 | 1.0 | 9.0 | 0.00 | 0.00 | 0.00 | 33 | 1018.1 |
| 20260906223524 | 87 | 65 | 0.0 | 9.0 | 0.00 | 0.00 | 0.00 | 33 | 1018.2 |
| 20260906223032 | 87 | 59 | 4.0 | 9.0 | 0.00 | 0.00 | 0.00 | 32 | 1018.2 |
| 20260906222503 | 87 | 66 | 0.0 | 15.0 | 0.00 | 0.00 | 0.00 | 32 | 1018.2 |
| 20260906222016 | 87 | 53 | 3.0 | 15.0 | 0.00 | 0.00 | 0.00 | 32 | 1018.4 |
| 20260906221509 | 87 | 15 | 3.0 | 12.0 | 0.00 | 0.00 | 0.00 | 32 | 1018.5 |
| 20260906221010 | 88 | 38 | 5.0 | 12.0 | 0.00 | 0.00 | 0.00 | 31 | 1018.6 |
| 20260906220510 | 88 | 55 | 3.0 | 9.0 | 0.00 | 0.00 | 0.00 | 31 | 1018.6 |
| 20260906220017 | 87 | 338 | 0.0 | 6.0 | 0.00 | 0.00 | 0.00 | 32 | 1018.6 |
| 20260906215516 | 87 | 336 | 2.0 | 9.0 | 0.00 | 0.00 | 0.00 | 32 | 1018.7 |
| 20260906215010 | 87 | 104 | 2.0 | 9.0 | 0.00 | 0.00 | 0.00 | 32 | 1018.8 |
| 20260906214524 | 87 | 140 | 1.0 | 6.0 | 0.00 | 0.00 | 0.00 | 32 | 1018.8 |
| 20260906214013 | 87 | 30 | 0.0 | 6.0 | 0.00 | 0.00 | 0.00 | 32 | 1019.0 |
| 20260906213516 | 87 | 53 | 2.0 | 10.0 | 0.00 | 0.00 | 0.00 | 33 | 1019.0 |
| 20260906213030 | 86 | 15 | 1.0 | 11.0 | 0.00 | 0.00 | 0.00 | 33 | 1019.1 |
| 20260906212518 | 86 | 51 | 4.0 | 11.0 | 0.00 | 0.00 | 0.00 | 33 | 1019.2 |
| 20260906212018 | 86 | 76 | 3.0 | 9.0 | 0.00 | 0.00 | 0.00 | 33 | 1019.3 |
| 20260906211532 | 86 | 47 | 3.0 | 11.0 | 0.00 | 0.00 | 0.00 | 34 | 1019.2 |
| 20260906211008 | 85 | 15 | 4.0 | 11.0 | 0.00 | 0.00 | 0.00 | 34 | 1019.4 |
| 20260906210510 | 86 | 71 | 3.0 | 10.0 | 0.00 | 0.00 | 0.00 | 33 | 1019.5 |
| 20260906210010 | 86 | 44 | 2.0 | 8.0 | 0.00 | 0.00 | 0.00 | 34 | 1019.6 |
| 20260906205510 | 85 | 77 | 3.0 | 9.0 | 0.00 | 0.00 | 0.00 | 34 | 1019.8 |
| 20260906205011 | 85 | 22 | 4.0 | 9.0 | 0.00 | 0.00 | 0.00 | 34 | 1019.9 |
| 20260906204521 | 84 | 46 | 4.0 | 11.0 | 0.00 | 0.00 | 0.00 | 35 | 1019.9 |
| 20260906204012 | 84 | 39 | 5.0 | 11.0 | 0.00 | 0.00 | 0.00 | 35 | 1020.0 |
| 20260906203515 | 84 | 22 | 7.0 | 11.0 | 0.00 | 0.00 | 0.00 | 35 | 1020.0 |
| 20260906203028 | 84 | 5 | 3.0 | 11.0 | 0.00 | 0.00 | 0.00 | 35 | 1020.0 |
| 20260906202513 | 84 | 25 | 6.0 | 13.0 | 0.00 | 0.00 | 0.00 | 35 | 1020.0 |
| 20260906202016 | 84 | 34 | 2.0 | 13.0 | 0.00 | 0.00 | 0.00 | 35 | 1020.1 |
| 20260906201528 | 84 | 30 | 1.0 | 10.0 | 0.00 | 0.00 | 0.00 | 35 | 1020.1 |
| 20260906201016 | 85 | 57 | 4.0 | 10.0 | 0.00 | 0.00 | 0.00 | 35 | 1020.2 |
| 20260906200515 | 84 | 69 | 2.0 | 10.0 | 0.00 | 0.00 | 0.00 | 36 | 1020.1 |
| 20260906200031 | 84 | 42 | 2.0 | 10.0 | 0.00 | 0.00 | 0.00 | 36 | 1020.2 |
| 20260906195510 | 84 | 77 | 2.0 | 7.0 | 0.00 | 0.00 | 0.00 | 36 | 1020.3 |
| 20260906195007 | 83 | 109 | 1.0 | 11.0 | 0.00 | 0.00 | 0.00 | 37 | 1020.2 |
| 20260906194520 | 83 | 130 | 4.0 | 11.0 | 0.00 | 0.00 | 0.00 | 37 | 1020.3 |
| 20260906194013 | 83 | 96 | 1.0 | 9.0 | 0.00 | 0.00 | 0.00 | 37 | 1020.4 |
| 20260906193512 | 82 | 132 | 2.0 | 9.0 | 0.00 | 0.00 | 0.00 | 38 | 1020.4 |
| 20260906193024 | 83 | 64 | 3.0 | 9.0 | 0.00 | 0.00 | 0.00 | 38 | 1020.5 |
| 20260906192514 | 82 | 74 | 2.0 | 11.0 | 0.00 | 0.00 | 0.00 | 38 | 1020.6 |
| 20260906192015 | 81 | 37 | 2.0 | 11.0 | 0.00 | 0.00 | 0.00 | 39 | 1020.6 |
| 20260906191527 | 81 | 21 | 0.0 | 11.0 | 0.00 | 0.00 | 0.00 | 38 | 1020.8 |
| 20260906191020 | 81 | 53 | 5.0 | 11.0 | 0.00 | 0.00 | 0.00 | 39 | 1020.8 |
| 20260906190515 | 81 | 45 | 3.0 | 10.0 | 0.00 | 0.00 | 0.00 | 39 | 1020.9 |
| 20260906190032 | 81 | 48 | 3.0 | 10.0 | 0.00 | 0.00 | 0.00 | 39 | 1021.0 |
| 20260906185515 | 81 | 77 | 0.0 | 8.0 | 0.00 | 0.00 | 0.00 | 40 | 1021.1 |
| 20260906185018 | 81 | 65 | 2.0 | 8.0 | 0.00 | 0.00 | 0.00 | 40 | 1021.1 |
| 20260906184535 | 80 | 44 | 0.0 | 8.0 | 0.00 | 0.00 | 0.00 | 41 | 1021.3 |
| 20260906184010 | 80 | 120 | 0.0 | 9.0 | 0.00 | 0.00 | 0.00 | 41 | 1021.4 |
| 20260906183512 | 80 | 88 | 1.0 | 9.0 | 0.00 | 0.00 | 0.00 | 41 | 1021.5 |
| 20260906183028 | 80 | 44 | 0.0 | 8.0 | 0.00 | 0.00 | 0.00 | 42 | 1021.6 |
| 20260906182502 | 80 | 65 | 2.0 | 8.0 | 0.00 | 0.00 | 0.00 | 42 | 1021.7 |
| 20260906182004 | 80 | 94 | 1.0 | 9.0 | 0.00 | 0.00 | 0.00 | 43 | 1021.8 |
| 20260906181504 | 80 | 38 | 3.0 | 9.0 | 0.00 | 0.00 | 0.00 | 43 | 1021.9 |
| 20260906181003 | 79 | 97 | 0.0 | 6.0 | 0.00 | 0.00 | 0.00 | 44 | 1021.9 |
| 20260906180504 | 78 | 86 | 0.0 | 9.0 | 0.00 | 0.00 | 0.00 | 45 | 1022.0 |
| 20260906180005 | 78 | 44 | 1.0 | 9.0 | 0.00 | 0.00 | 0.00 | 46 | 1022.1 |
| 20260906175505 | 78 | 82 | 1.0 | 9.0 | 0.00 | 0.00 | 0.00 | 46 | 1022.2 |
| 20260906175006 | 78 | 66 | 1.0 | 8.0 | 0.00 | 0.00 | 0.00 | 47 | 1022.3 |
| 20260906174509 | 77 | 51 | 1.0 | 8.0 | 0.00 | 0.00 | 0.00 | 48 | 1022.4 |
| 20260906174008 | 77 | 59 | 1.0 | 7.0 | 0.00 | 0.00 | 0.00 | 47 | 1022.5 |
| 20260906173510 | 77 | 97 | 1.0 | 7.0 | 0.00 | 0.00 | 0.00 | 47 | 1022.5 |
| 20260906173016 | 78 | 97 | 3.0 | 6.0 | 0.00 | 0.00 | 0.00 | 46 | 1022.7 |
| 20260906172511 | 78 | 107 | 0.0 | 6.0 | 0.00 | 0.00 | 0.00 | 47 | 1022.8 |
| 20260906172011 | 77 | 106 | 0.0 | 6.0 | 0.00 | 0.00 | 0.00 | 49 | 1022.9 |
| 20260906171523 | 77 | 101 | 0.0 | 5.0 | 0.00 | 0.00 | 0.00 | 50 | 1022.9 |
| 20260906171003 | 76 | 59 | 0.0 | 7.0 | 0.00 | 0.00 | 0.00 | 52 | 1022.9 |
| 20260906170505 | 75 | 55 | 0.0 | 9.0 | 0.00 | 0.00 | 0.00 | 52 | 1023.1 |
| 20260906170006 | 75 | 54 | 3.0 | 9.0 | 0.00 | 0.00 | 0.00 | 52 | 1023.1 |
| 20260906165504 | 75 | 94 | 0.0 | 4.0 | 0.00 | 0.00 | 0.00 | 51 | 1023.2 |
| 20260906165003 | 75 | 94 | 0.0 | 4.0 | 0.00 | 0.00 | 0.00 | 52 | 1023.3 |
| 20260906164506 | 75 | 92 | 0.0 | 6.0 | 0.00 | 0.00 | 0.00 | 53 | 1023.3 |
| 20260906164004 | 75 | 94 | 2.0 | 6.0 | 0.00 | 0.00 | 0.00 | 53 | 1023.3 |
| 20260906163506 | 74 | 109 | 0.0 | 6.0 | 0.00 | 0.00 | 0.00 | 54 | 1023.3 |
| 20260906163017 | 74 | 109 | 0.0 | 8.0 | 0.00 | 0.00 | 0.00 | 55 | 1023.2 |
| 20260906162511 | 74 | 133 | 0.0 | 8.0 | 0.00 | 0.00 | 0.00 | 55 | 1023.2 |
| 20260906162011 | 73 | 117 | 0.0 | 5.0 | 0.00 | 0.00 | 0.00 | 56 | 1023.1 |
| 20260906161516 | 73 | 119 | 0.0 | 6.0 | 0.00 | 0.00 | 0.00 | 56 | 1023.1 |
| 20260906161011 | 73 | 121 | 0.0 | 6.0 | 0.00 | 0.00 | 0.00 | 56 | 1023.1 |
| 20260906160514 | 73 | 109 | 0.0 | 6.0 | 0.00 | 0.00 | 0.00 | 57 | 1023.1 |
| 20260906160024 | 73 | 80 | 1.0 | 5.0 | 0.00 | 0.00 | 0.00 | 57 | 1023.1 |
| 20260906155505 | 72 | 84 | 0.0 | 3.0 | 0.00 | 0.00 | 0.00 | 58 | 1023.1 |
| 20260906155003 | 72 | 84 | 0.0 | 6.0 | 0.00 | 0.00 | 0.00 | 57 | 1023.1 |
| 20260906154504 | 72 | 79 | 0.0 | 6.0 | 0.00 | 0.00 | 0.00 | 57 | 1023.1 |
| 20260906154004 | 72 | 67 | 1.0 | 5.0 | 0.00 | 0.00 | 0.00 | 57 | 1023.1 |
| 20260906153504 | 72 | 57 | 1.0 | 5.0 | 0.00 | 0.00 | 0.00 | 57 | 1022.9 |
| 20260906153013 | 72 | 69 | 1.0 | 4.0 | 0.00 | 0.00 | 0.00 | 55 | 1023.0 |
| 20260906152506 | 72 | 65 | 0.0 | 1.0 | 0.00 | 0.00 | 0.00 | 53 | 1023.0 |
| 20260906152007 | 72 | 5 | 0.0 | 0.0 | 0.00 | 0.00 | 0.00 | 55 | 1023.0 |
| 20260906151518 | 72 | 5 | 0.0 | 0.0 | 0.00 | 0.00 | 0.00 | 54 | 1023.1 |
| 20260906151013 | 71 | 5 | 0.0 | 0.0 | 0.00 | 0.00 | 0.00 | 55 | 1023.0 |
| 20260906150511 | 71 | 338 | 0.0 | 0.0 | 0.00 | 0.00 | 0.00 | 55 | 1023.1 |
| 20260906150019 | 71 | 338 | 0.0 | 0.0 | 0.00 | 0.00 | 0.00 | 54 | 1023.1 |
| 20260906145513 | 71 | 337 | 0.0 | 0.0 | 0.00 | 0.00 | 0.00 | 55 | 1023.1 |
| 20260906145012 | 71 | 338 | 0.0 | 0.0 | 0.00 | 0.00 | 0.00 | 55 | 1023.1 |
| 20260906144526 | 70 | 338 | 0.0 | 0.0 | 0.00 | 0.00 | 0.00 | 56 | 1023.1 |
| 20260906144003 | 70 | 315 | 0.0 | 0.0 | 0.00 | 0.00 | 0.00 | 57 | 1023.1 |
| 20260906143504 | 70 | 315 | 0.0 | 0.0 | 0.00 | 0.00 | 0.00 | 57 | 1023.2 |
| 20260906143012 | 69 | 313 | 0.0 | 0.0 | 0.00 | 0.00 | 0.00 | 59 | 1023.1 |
| 20260906142503 | 69 | 360 | 0.0 | 0.0 | 0.00 | 0.00 | 0.00 | 60 | 1023.1 |
| 20260906142009 | 68 | 360 | 0.0 | 1.0 | 0.00 | 0.00 | 0.00 | 62 | 1023.1 |
| 20260906141521 | 67 | 360 | 0.0 | 1.0 | 0.00 | 0.00 | 0.00 | 63 | 1023.1 |
| 20260906141009 | 67 | 360 | 0.0 | 0.0 | 0.00 | 0.00 | 0.00 | 63 | 1023.2 |
| 20260906140509 | 67 | 287 | 0.0 | 0.0 | 0.00 | 0.00 | 0.00 | 64 | 1023.3 |
| 20260906140017 | 66 | 288 | 0.0 | 0.0 | 0.00 | 0.00 | 0.00 | 64 | 1023.3 |
| 20260906135510 | 66 | 360 | 0.0 | 0.0 | 0.00 | 0.00 | 0.00 | 66 | 1023.4 |
| 20260906135012 | 65 | 360 | 0.0 | 0.0 | 0.00 | 0.00 | 0.00 | 67 | 1023.3 |
| 20260906134527 | 65 | 360 | 0.0 | 0.0 | 0.00 | 0.00 | 0.00 | 67 | 1023.3 |
| 20260906134013 | 64 | 360 | 0.0 | 0.0 | 0.00 | 0.00 | 0.00 | 66 | 1023.3 |
| 20260906133518 | 64 | 360 | 0.0 | 0.0 | 0.00 | 0.00 | 0.00 | 65 | 1023.1 |
| 20260906133027 | 63 | 360 | 0.0 | 0.0 | 0.00 | 0.00 | 0.00 | 65 | 1023.0 |
| 20260906132504 | 63 | 360 | 0.0 | 0.0 | 0.00 | 0.00 | 0.00 | 66 | 1022.9 |
| 20260906132004 | 63 | 360 | 0.0 | 0.0 | 0.00 | 0.00 | 0.00 | 66 | 1022.8 |
| 20260906131508 | 62 | 304 | 0.0 | 0.0 | 0.00 | 0.00 | 0.00 | 67 | 1022.9 |
| 20260906131006 | 62 | 360 | 0.0 | 0.0 | 0.00 | 0.00 | 0.00 | 69 | 1022.9 |
| 20260906130508 | 62 | 360 | 0.0 | 0.0 | 0.00 | 0.00 | 0.00 | 70 | 1022.9 |
| 20260906130011 | 62 | 360 | 0.0 | 0.0 | 0.00 | 0.00 | 0.00 | 70 | 1022.7 |
| 20260906125511 | 62 | 360 | 0.0 | 0.0 | 0.00 | 0.00 | 0.00 | 71 | 1022.7 |
| 20260906125010 | 62 | 360 | 0.0 | 0.0 | 0.00 | 0.00 | 0.00 | 70 | 1022.6 |
| 20260906124519 | 62 | 360 | 0.0 | 0.0 | 0.00 | 0.00 | 0.00 | 69 | 1022.7 |
| 20260906124012 | 62 | 360 | 0.0 | 0.0 | 0.00 | 0.00 | 0.00 | 70 | 1022.5 |
| 20260906123515 | 62 | 360 | 0.0 | 0.0 | 0.00 | 0.00 | 0.00 | 70 | 1022.5 |
| 20260906123035 | 62 | 360 | 0.0 | 0.0 | 0.00 | 0.00 | 0.00 | 70 | 1022.5 |
| 20260906122516 | 62 | 360 | 0.0 | 0.0 | 0.00 | 0.00 | 0.00 | 70 | 1022.5 |
| 20260906122016 | 62 | 360 | 0.0 | 0.0 | 0.00 | 0.00 | 0.00 | 70 | 1022.5 |
| 20260906121533 | 62 | 360 | 0.0 | 0.0 | 0.00 | 0.00 | 0.00 | 70 | 1022.6 |
| 20260906121017 | 62 | 360 | 0.0 | 0.0 | 0.00 | 0.00 | 0.00 | 70 | 1022.5 |
| 20260906120509 | 62 | 360 | 0.0 | 0.0 | 0.00 | 0.00 | 0.00 | 70 | 1022.5 |
| 20260906120013 | 62 | 360 | 0.0 | 0.0 | 0.00 | 0.00 | 0.00 | 71 | 1022.6 |
| 20260906115508 | 62 | 360 | 0.0 | 0.0 | 0.00 | 0.00 | 0.00 | 71 | 1022.5 |
| 20260906115010 | 62 | 360 | 0.0 | 0.0 | 0.00 | 0.00 | 0.00 | 71 | 1022.5 |
| 20260906114521 | 62 | 360 | 0.0 | 0.0 | 0.00 | 0.00 | 0.00 | 73 | 1022.6 |
| 20260906114010 | 62 | 360 | 0.0 | 0.0 | 0.00 | 0.00 | 0.00 | 73 | 1022.6 |
| 20260906113512 | 63 | 360 | 0.0 | 0.0 | 0.00 | 0.00 | 0.00 | 74 | 1022.6 |
| 20260906113025 | 63 | 360 | 0.0 | 4.0 | 0.00 | 0.00 | 0.00 | 74 | 1022.7 |
| 20260906112513 | 63 | 5 | 0.0 | 5.0 | 0.00 | 0.00 | 0.00 | 74 | 1022.7 |
| 20260906112014 | 63 | 5 | 1.0 | 5.0 | 0.00 | 0.00 | 0.00 | 73 | 1022.6 |
| 20260906111528 | 63 | 351 | 1.0 | 5.0 | 0.00 | 0.00 | 0.00 | 72 | 1022.3 |
| 20260906111015 | 64 | 346 | 0.0 | 4.0 | 0.00 | 0.00 | 0.00 | 69 | 1022.3 |
| 20260906110522 | 64 | 338 | 0.0 | 4.0 | 0.00 | 0.00 | 0.00 | 67 | 1022.4 |
| 20260906110034 | 64 | 360 | 0.0 | 0.0 | 0.00 | 0.00 | 0.00 | 61 | 1022.3 |
| 20260906105518 | 64 | 302 | 0.0 | 0.0 | 0.00 | 0.00 | 0.00 | 58 | 1022.2 |
| 20260906105010 | 65 | 333 | 0.0 | 0.0 | 0.00 | 0.00 | 0.00 | 57 | 1022.3 |
| 20260906104513 | 65 | 360 | 0.0 | 0.0 | 0.00 | 0.00 | 0.00 | 56 | 1022.3 |
| 20260906104008 | 65 | 360 | 0.0 | 0.0 | 0.00 | 0.00 | 0.00 | 56 | 1022.3 |
| 20260906103512 | 65 | 360 | 0.0 | 0.0 | 0.00 | 0.00 | 0.00 | 55 | 1022.2 |
| 20260906103040 | 65 | 360 | 0.0 | 0.0 | 0.00 | 0.00 | 0.00 | 55 | 1022.1 |
| 20260906102516 | 65 | 360 | 0.0 | 0.0 | 0.00 | 0.00 | 0.00 | 55 | 1022.1 |
| 20260906102012 | 65 | 360 | 0.0 | 0.0 | 0.00 | 0.00 | 0.00 | 55 | 1022.0 |
| 20260906101527 | 66 | 9 | 0.0 | 0.0 | 0.00 | 0.00 | 0.00 | 54 | 1022.1 |
| 20260906101016 | 66 | 9 | 0.0 | 0.0 | 0.00 | 0.00 | 0.00 | 54 | 1022.0 |
| 20260906100517 | 66 | 11 | 0.0 | 0.0 | 0.00 | 0.00 | 0.00 | 53 | 1022.1 |
| 20260906100034 | 67 | 15 | 0.0 | 0.0 | 0.00 | 0.00 | 0.00 | 52 | 1022.1 |
| 20260906095517 | 67 | 14 | 0.0 | 0.0 | 0.00 | 0.00 | 0.00 | 52 | 1022.1 |
| 20260906095017 | 67 | 15 | 0.0 | 0.0 | 0.00 | 0.00 | 0.00 | 51 | 1022.1 |
| 20260906094531 | 67 | 15 | 0.0 | 0.0 | 0.00 | 0.00 | 0.00 | 51 | 1022.2 |
| 20260906094018 | 68 | 14 | 0.0 | 0.0 | 0.00 | 0.00 | 0.00 | 51 | 1022.2 |
| 20260906093508 | 68 | 14 | 0.0 | 0.0 | 0.00 | 0.00 | 0.00 | 51 | 1022.2 |
| 20260906093016 | 68 | 15 | 0.0 | 0.0 | 0.00 | 0.00 | 0.00 | 50 | 1022.2 |
| 20260906092511 | 68 | 15 | 0.0 | 0.0 | 0.00 | 0.00 | 0.00 | 50 | 1022.2 |
| 20260906092014 | 68 | 15 | 0.0 | 0.0 | 0.00 | 0.00 | 0.00 | 50 | 1022.2 |
| 20260906091524 | 69 | 348 | 0.0 | 0.0 | 0.00 | 0.00 | 0.00 | 48 | 1022.1 |
| 20260906091015 | 69 | 335 | 0.0 | 0.0 | 0.00 | 0.00 | 0.00 | 47 | 1022.0 |
| 20260906090517 | 69 | 336 | 0.0 | 0.0 | 0.00 | 0.00 | 0.00 | 47 | 1022.0 |
| 20260906090029 | 69 | 336 | 0.0 | 0.0 | 0.00 | 0.00 | 0.00 | 47 | 1022.0 |
| 20260906085516 | 69 | 360 | 0.0 | 0.0 | 0.00 | 0.00 | 0.00 | 47 | 1022.0 |
| 20260906085018 | 70 | 318 | 0.0 | 0.0 | 0.00 | 0.00 | 0.00 | 47 | 1021.9 |
| 20260906084532 | 70 | 360 | 0.0 | 0.0 | 0.00 | 0.00 | 0.00 | 46 | 1021.9 |
| 20260906084020 | 70 | 360 | 0.0 | 0.0 | 0.00 | 0.00 | 0.00 | 46 | 1021.9 |
| 20260906083519 | 70 | 360 | 0.0 | 5.0 | 0.00 | 0.00 | 0.00 | 45 | 1021.9 |
| 20260906083034 | 70 | 360 | 0.0 | 5.0 | 0.00 | 0.00 | 0.00 | 45 | 1021.9 |
| 20260906082521 | 70 | 360 | 0.0 | 8.0 | 0.00 | 0.00 | 0.00 | 45 | 1021.9 |
| 20260906082012 | 70 | 272 | 0.0 | 8.0 | 0.00 | 0.00 | 0.00 | 46 | 1021.9 |
| 20260906081518 | 70 | 360 | 2.0 | 8.0 | 0.00 | 0.00 | 0.00 | 46 | 1021.9 |
| 20260906081014 | 70 | 268 | 0.0 | 4.0 | 0.00 | 0.00 | 0.00 | 47 | 1021.9 |
| 20260906080514 | 70 | 269 | 0.0 | 3.0 | 0.00 | 0.00 | 0.00 | 47 | 1021.8 |
| 20260906080029 | 70 | 360 | 0.0 | 4.0 | 0.00 | 0.00 | 0.00 | 47 | 1021.7 |
| 20260906075515 | 70 | 360 | 0.0 | 8.0 | 0.00 | 0.00 | 0.00 | 47 | 1021.9 |
| 20260906075015 | 70 | 360 | 0.0 | 8.0 | 0.00 | 0.00 | 0.00 | 47 | 1021.7 |
| 20260906074528 | 70 | 360 | 3.0 | 8.0 | 0.00 | 0.00 | 0.00 | 47 | 1021.8 |
| 20260906074016 | 70 | 360 | 2.0 | 9.0 | 0.00 | 0.00 | 0.00 | 47 | 1021.7 |
| 20260906073523 | 71 | 360 | 2.0 | 9.0 | 0.00 | 0.00 | 0.00 | 46 | 1021.7 |
| 20260906073035 | 71 | 360 | 4.0 | 9.0 | 0.00 | 0.00 | 0.00 | 46 | 1021.7 |
| 20260906072519 | 71 | 360 | 3.0 | 9.0 | 0.00 | 0.00 | 0.00 | 45 | 1021.6 |
| 20260906072020 | 71 | 360 | 3.0 | 10.0 | 0.00 | 0.00 | 0.00 | 45 | 1021.6 |
| 20260906071535 | 71 | 285 | 1.0 | 11.0 | 0.00 | 0.00 | 0.00 | 45 | 1021.6 |
| 20260906071018 | 71 | 360 | 5.0 | 11.0 | 0.00 | 0.00 | 0.00 | 44 | 1021.7 |
| 20260906070513 | 72 | 248 | 4.0 | 9.0 | 0.00 | 0.00 | 0.00 | 44 | 1021.6 |
| 20260906070022 | 72 | 273 | 2.0 | 12.0 | 0.00 | 0.00 | 0.00 | 44 | 1021.6 |
| 20260906065517 | 72 | 360 | 3.0 | 12.0 | 0.00 | 0.00 | 0.00 | 44 | 1021.7 |
| 20260906065015 | 72 | 290 | 2.0 | 9.0 | 0.00 | 0.00 | 0.00 | 44 | 1021.6 |
| 20260906064535 | 72 | 271 | 2.0 | 9.0 | 0.00 | 0.00 | 0.00 | 44 | 1021.7 |
| 20260906064017 | 72 | 266 | 1.0 | 7.0 | 0.00 | 0.00 | 0.00 | 44 | 1021.8 |
| 20260906063519 | 71 | 275 | 0.0 | 5.0 | 0.00 | 0.00 | 0.00 | 44 | 1021.9 |
| 20260906063032 | 71 | 277 | 1.0 | 5.0 | 0.00 | 0.00 | 0.00 | 44 | 1021.9 |
| 20260906062518 | 71 | 360 | 1.0 | 6.0 | 0.00 | 0.00 | 0.00 | 44 | 1022.0 |
| 20260906062018 | 72 | 277 | 0.0 | 6.0 | 0.00 | 0.00 | 0.00 | 44 | 1022.0 |
| 20260906061535 | 72 | 273 | 0.0 | 7.0 | 0.00 | 0.00 | 0.00 | 44 | 1022.0 |
| 20260906061016 | 72 | 270 | 1.0 | 7.0 | 0.00 | 0.00 | 0.00 | 44 | 1022.1 |
| 20260906060513 | 72 | 284 | 0.0 | 6.0 | 0.00 | 0.00 | 0.00 | 44 | 1022.1 |
| 20260906060018 | 72 | 360 | 1.0 | 8.0 | 0.00 | 0.00 | 0.00 | 44 | 1022.1 |
| 20260906055516 | 72 | 360 | 0.0 | 10.0 | 0.00 | 0.00 | 0.00 | 45 | 1022.3 |
| 20260906055011 | 72 | 252 | 2.0 | 10.0 | 0.00 | 0.00 | 0.00 | 46 | 1022.2 |
| 20260906054534 | 71 | 266 | 3.0 | 11.0 | 0.00 | 0.00 | 0.00 | 47 | 1022.2 |
| 20260906054019 | 71 | 252 | 3.0 | 11.0 | 0.00 | 0.00 | 0.00 | 47 | 1022.3 |
| 20260906053520 | 72 | 215 | 1.0 | 8.0 | 0.00 | 0.00 | 0.00 | 47 | 1022.5 |
| 20260906053006 | 72 | 249 | 1.0 | 9.0 | 0.00 | 0.00 | 0.00 | 47 | 1022.5 |
| 20260906052504 | 72 | 267 | 0.0 | 9.0 | 0.00 | 0.00 | 0.00 | 47 | 1022.5 |
| 20260906052007 | 73 | 229 | 2.0 | 9.0 | 0.00 | 0.00 | 0.00 | 46 | 1022.5 |
| 20260906051512 | 74 | 226 | 1.0 | 9.0 | 0.00 | 0.00 | 0.00 | 45 | 1022.4 |
| 20260906051009 | 74 | 319 | 2.0 | 11.0 | 0.00 | 0.00 | 0.00 | 43 | 1022.7 |
| 20260906050514 | 74 | 255 | 1.0 | 11.0 | 0.00 | 0.00 | 0.00 | 43 | 1022.7 |
| 20260906050016 | 74 | 200 | 1.0 | 10.0 | 0.00 | 0.00 | 0.00 | 42 | 1022.5 |
| 20260906045512 | 75 | 207 | 2.0 | 12.0 | 0.00 | 0.00 | 0.00 | 41 | 1022.7 |
| 20260906045013 | 75 | 228 | 2.0 | 12.0 | 0.00 | 0.00 | 0.00 | 40 | 1022.8 |
| 20260906044523 | 76 | 202 | 2.0 | 15.0 | 0.00 | 0.00 | 0.00 | 39 | 1022.9 |
| 20260906044011 | 76 | 188 | 6.0 | 16.0 | 0.00 | 0.00 | 0.00 | 38 | 1022.9 |
| 20260906043517 | 77 | 182 | 5.0 | 16.0 | 0.00 | 0.00 | 0.00 | 34 | 1022.9 |
| 20260906043028 | 77 | 198 | 1.0 | 7.0 | 0.00 | 0.00 | 0.00 | 35 | 1022.9 |
| 20260906042513 | 77 | 183 | 1.0 | 6.0 | 0.00 | 0.00 | 0.00 | 35 | 1022.8 |
| 20260906042018 | 77 | 180 | 0.0 | 1.0 | 0.00 | 0.00 | 0.00 | 34 | 1022.7 |
| 20260906041506 | 77 | 360 | 0.0 | 8.0 | 0.00 | 0.00 | 0.00 | 33 | 1022.3 |
| 20260906041008 | 78 | 360 | 0.0 | 14.0 | 0.00 | 0.00 | 0.00 | 33 | 1021.9 |
| 20260906040506 | 78 | 249 | 5.0 | 14.0 | 0.00 | 0.00 | 0.00 | 33 | 1021.7 |
| 20260906040012 | 77 | 269 | 1.0 | 11.0 | 0.00 | 0.00 | 0.00 | 32 | 1021.6 |
| 20260906035511 | 77 | 360 | 4.0 | 11.0 | 0.00 | 0.00 | 0.00 | 32 | 1021.6 |
| 20260906035011 | 77 | 360 | 3.0 | 10.0 | 0.00 | 0.00 | 0.00 | 32 | 1021.3 |
| 20260906034516 | 77 | 360 | 2.0 | 8.0 | 0.00 | 0.00 | 0.00 | 32 | 1021.3 |
| 20260906034011 | 77 | 360 | 2.0 | 8.0 | 0.00 | 0.00 | 0.00 | 32 | 1021.2 |
| 20260906033514 | 77 | 278 | 0.0 | 3.0 | 0.00 | 0.00 | 0.00 | 31 | 1021.1 |
| 20260906033027 | 77 | 272 | 0.0 | 6.0 | 0.00 | 0.00 | 0.00 | 31 | 1021.1 |
| 20260906032515 | 78 | 272 | 0.0 | 6.0 | 0.00 | 0.00 | 0.00 | 31 | 1021.1 |
| 20260906032019 | 77 | 360 | 0.0 | 4.0 | 0.00 | 0.00 | 0.00 | 31 | 1021.1 |
| 20260906031530 | 77 | 277 | 0.0 | 5.0 | 0.00 | 0.00 | 0.00 | 31 | 1021.1 |
| 20260906031018 | 77 | 276 | 1.0 | 5.0 | 0.00 | 0.00 | 0.00 | 31 | 1021.1 |
| 20260906030516 | 77 | 275 | 0.0 | 3.0 | 0.00 | 0.00 | 0.00 | 31 | 1021.1 |
| 20260906030012 | 77 | 273 | 0.0 | 3.0 | 0.00 | 0.00 | 0.00 | 31 | 1021.0 |
| 20260906025508 | 77 | 275 | 0.0 | 1.0 | 0.00 | 0.00 | 0.00 | 31 | 1020.9 |
| 20260906025008 | 78 | 275 | 0.0 | 1.0 | 0.00 | 0.00 | 0.00 | 30 | 1020.8 |
| 20260906024518 | 78 | 275 | 0.0 | 2.0 | 0.00 | 0.00 | 0.00 | 30 | 1020.8 |
| 20260906024008 | 78 | 360 | 0.0 | 3.0 | 0.00 | 0.00 | 0.00 | 30 | 1020.6 |
| 20260906023512 | 78 | 272 | 0.0 | 4.0 | 0.00 | 0.00 | 0.00 | 30 | 1020.6 |
| 20260906023022 | 78 | 269 | 0.0 | 4.0 | 0.00 | 0.00 | 0.00 | 30 | 1020.5 |
| 20260906022514 | 78 | 269 | 0.0 | 3.0 | 0.00 | 0.00 | 0.00 | 30 | 1020.5 |
| 20260906022017 | 79 | 292 | 0.0 | 3.0 | 0.00 | 0.00 | 0.00 | 30 | 1020.5 |
| 20260906021538 | 79 | 360 | 0.0 | 3.0 | 0.00 | 0.00 | 0.00 | 29 | 1020.4 |
| 20260906021014 | 79 | 360 | 0.0 | 3.0 | 0.00 | 0.00 | 0.00 | 29 | 1020.4 |
| 20260906020520 | 80 | 360 | 0.0 | 5.0 | 0.00 | 0.00 | 0.00 | 29 | 1020.4 |
| 20260906020030 | 80 | 293 | 0.0 | 5.0 | 0.00 | 0.00 | 0.00 | 28 | 1020.3 |
| 20260906015516 | 80 | 360 | 0.0 | 9.0 | 0.00 | 0.00 | 0.00 | 28 | 1020.3 |
| 20260906015016 | 81 | 286 | 0.0 | 9.0 | 0.00 | 0.00 | 0.00 | 28 | 1020.4 |
| 20260906014514 | 81 | 360 | 3.0 | 9.0 | 0.00 | 0.00 | 0.00 | 28 | 1020.3 |
| 20260906014007 | 81 | 360 | 2.0 | 8.0 | 0.00 | 0.00 | 0.00 | 28 | 1020.3 |
| 20260906013510 | 81 | 360 | 3.0 | 9.0 | 0.00 | 0.00 | 0.00 | 28 | 1020.2 |
| 20260906013031 | 81 | 310 | 3.0 | 9.0 | 0.00 | 0.00 | 0.00 | 27 | 1020.2 |
| 20260906012514 | 82 | 360 | 2.0 | 11.0 | 0.00 | 0.00 | 0.00 | 27 | 1020.2 |
| 20260906012012 | 82 | 360 | 4.0 | 11.0 | 0.00 | 0.00 | 0.00 | 27 | 1020.2 |
| 20260906011526 | 82 | 360 | 6.0 | 10.0 | 0.00 | 0.00 | 0.00 | 27 | 1020.2 |
| 20260906011016 | 83 | 352 | 2.0 | 11.0 | 0.00 | 0.00 | 0.00 | 27 | 1020.1 |
| 20260906010514 | 83 | 17 | 1.0 | 11.0 | 0.00 | 0.00 | 0.00 | 26 | 1020.1 |
| 20260906010028 | 84 | 355 | 1.0 | 6.0 | 0.00 | 0.00 | 0.00 | 26 | 1020.1 |
| 20260906005517 | 84 | 19 | 1.0 | 4.0 | 0.00 | 0.00 | 0.00 | 26 | 1020.1 |
| 20260906005017 | 85 | 36 | 0.0 | 3.0 | 0.00 | 0.00 | 0.00 | 25 | 1020.2 |
| 20260906004530 | 85 | 36 | 0.0 | 0.0 | 0.00 | 0.00 | 0.00 | 24 | 1020.1 |
| 20260906004017 | 85 | 36 | 0.0 | 0.0 | 0.00 | 0.00 | 0.00 | 24 | 1020.1 |
| 20260906003518 | 85 | 36 | 0.0 | 0.0 | 0.00 | 0.00 | 0.00 | 24 | 1020.2 |
| 20260906003020 | 85 | 36 | 0.0 | 4.0 | 0.00 | 0.00 | 0.00 | 24 | 1020.2 |
| 20260906002510 | 86 | 36 | 0.0 | 4.0 | 0.00 | 0.00 | 0.00 | 23 | 1020.1 |
| 20260906002012 | 86 | 38 | 1.0 | 4.0 | 0.00 | 0.00 | 0.00 | 23 | 1020.1 |
| 20260906001520 | 87 | 30 | 1.0 | 4.0 | 0.00 | 0.00 | 0.00 | 23 | 1020.0 |
| 20260906001014 | 87 | 32 | 0.0 | 6.0 | 0.00 | 0.00 | 0.00 | 23 | 1020.1 |
| 20260906000514 | 88 | 21 | 2.0 | 6.0 | 0.00 | 0.00 | 0.00 | 22 | 1020.1 |
| 20260906000026 | 88 | 27 | 1.0 | 5.0 | 0.00 | 0.00 | 0.00 | 22 | 1020.0 |
| 20260905235515 | 89 | 11 | 0.0 | 4.0 | 0.00 | 0.00 | 0.00 | 21 | 1020.0 |
| 20260905235017 | 89 | 216 | 0.0 | 3.0 | 0.00 | 0.00 | 0.00 | 21 | 1020.0 |
| 20260905234529 | 90 | 216 | 0.0 | 4.0 | 0.00 | 0.00 | 0.00 | 20 | 1019.9 |
| 20260905234016 | 90 | 216 | 1.0 | 4.0 | 0.00 | 0.00 | 0.00 | 21 | 1019.9 |
| 20260905233520 | 90 | 217 | 0.0 | 4.0 | 0.00 | 0.00 | 0.00 | 20 | 1019.8 |
| 20260905233033 | 90 | 217 | 1.0 | 4.0 | 0.00 | 0.00 | 0.00 | 20 | 1020.0 |
| 20260905232520 | 91 | 217 | 0.0 | 3.0 | 0.00 | 0.00 | 0.00 | 20 | 1019.9 |
| 20260905232018 | 90 | 218 | 0.0 | 3.0 | 0.00 | 0.00 | 0.00 | 20 | 1019.9 |
| 20260905231516 | 90 | 217 | 0.0 | 3.0 | 0.00 | 0.00 | 0.00 | 20 | 1019.9 |
| 20260905231011 | 90 | 212 | 0.0 | 3.0 | 0.00 | 0.00 | 0.00 | 20 | 1019.8 |
| 20260905230513 | 90 | 212 | 0.0 | 3.0 | 0.00 | 0.00 | 0.00 | 20 | 1019.8 |
| 20260905230023 | 89 | 156 | 0.0 | 5.0 | 0.00 | 0.00 | 0.00 | 21 | 1019.9 |
| 20260905225513 | 89 | 156 | 1.0 | 5.0 | 0.00 | 0.00 | 0.00 | 21 | 1019.8 |
| 20260905225015 | 88 | 150 | 0.0 | 4.0 | 0.00 | 0.00 | 0.00 | 21 | 1019.8 |
| 20260905224531 | 88 | 150 | 0.0 | 4.0 | 0.00 | 0.00 | 0.00 | 21 | 1019.8 |